Location: Alma
(38.7220°N, 88.9090°W)
Time: 09:20:45
(UTC-06:00)

Vanguard 2 - Pass Details

Date: 14 November 2019
Orbit: 553 x 2938 km, 32.9° (Epoch: 06 December)

Event Time Altitude Azimuth Distance (km) Brightness Sun altitude
Rises 11:18:08 0° 254° (WSW) 3,853 11.2 32.8°
Reaches altitude 10° 11:21:27 10° 248° (WSW) 2,566 10.5 32.8°
Maximum altitude 11:26:46 41° 179° (S) 980 10.7 32.9°
Drops below altitude 10° 11:30:42 10° 108° (ESE) 1,897 9.9 33.0°
Sets 11:32:49 0° 100° (E) 2,731 10.5 33.0°
